Time,TemperatureF,DewpointF,PressureIn,WindDirection,WindDirectionDegrees,WindSpeedMPH,WindSpeedGustMPH,Humidity,HourlyPrecipIn,Conditions,Clouds,dailyrainin,SolarRadiationWatts/m^2,SoftwareType,DateUTC
2013-06-02 00:01:00,74.9,66.0,30.04,South,190,2.0,3.0,74,0.00,,,0.00,0,WeatherCatV1.10B1570,2013-06-02 04:01:00,
2013-06-02 00:06:00,74.8,65.9,30.04,SSW,196,1.0,3.0,74,0.00,,,0.00,0,WeatherCatV1.10B1570,2013-06-02 04:06:00,
2013-06-02 00:11:00,74.6,66.1,30.04,South,174,1.0,3.0,75,0.00,,,0.00,0,WeatherCatV1.10B1570,2013-06-02 04:11:00,
2013-06-02 00:16:00,74.6,66.1,30.04,South,186,0.0,2.0,75,0.00,,,0.00,0,WeatherCatV1.10B1570,2013-06-02 04:16:00,
2013-06-02 00:21:00,74.4,65.9,30.04,SSW,200,2.0,3.0,75,0.00,,,0.00,0,WeatherCatV1.10B1570,2013-06-02 04:21:00,
2013-06-02 00:26:00,74.3,66.2,30.03,SSE,161,1.0,6.0,76,0.00,,,0.00,0,WeatherCatV1.10B1570,2013-06-02 04:26:00,
2013-06-02 00:31:00,74.2,66.1,30.04,South,172,1.0,5.0,76,0.00,,,0.00,0,WeatherCatV1.10B1570,2013-06-02 04:31:00,
2013-06-02 00:36:00,74.1,66.0,30.03,South,178,3.0,7.0,76,0.00,,,0.00,0,WeatherCatV1.10B1570,2013-06-02 04:36:00,
2013-06-02 00:41:00,74.0,66.3,30.03,South,181,2.0,3.0,77,0.00,,,0.00,0,WeatherCatV1.10B1570,2013-06-02 04:41:00,
2013-06-02 00:46:00,73.9,66.2,30.03,South,190,2.0,3.0,77,0.00,,,0.00,0,WeatherCatV1.10B1570,2013-06-02 04:46:00,
2013-06-02 00:51:00,73.9,66.2,30.03,SSW,192,2.0,5.0,77,0.00,,,0.00,0,WeatherCatV1.10B1570,2013-06-02 04:51:00,
2013-06-02 00:56:00,73.7,66.4,30.03,SSW,199,3.0,5.0,78,0.00,,,0.00,0,WeatherCatV1.10B1570,2013-06-02 04:56:00,
2013-06-02 01:01:00,73.6,66.3,30.03,SSW,209,2.0,5.0,78,0.00,,,0.00,0,WeatherCatV1.10B1570,2013-06-02 05:01:00,
2013-06-02 01:06:00,73.5,66.2,30.03,NW,321,1.0,5.0,78,0.00,,,0.00,0,WeatherCatV1.10B1570,2013-06-02 05:06:00,
2013-06-02 01:11:00,73.4,66.1,30.03,South,174,2.0,5.0,78,0.00,,,0.00,0,WeatherCatV1.10B1570,2013-06-02 05:11:00,
2013-06-02 01:16:00,73.3,66.4,30.03,SSW,207,1.0,4.0,79,0.00,,,0.00,0,WeatherCatV1.10B1570,2013-06-02 05:16:00,
2013-06-02 01:21:00,73.2,66.3,30.03,South,188,2.0,7.0,79,0.00,,,0.00,0,WeatherCatV1.10B1570,2013-06-02 05:21:00,
2013-06-02 01:26:00,73.1,66.2,30.03,SSW,205,4.0,5.0,79,0.00,,,0.00,0,WeatherCatV1.10B1570,2013-06-02 05:26:00,
2013-06-02 01:31:00,73.0,66.5,30.03,South,180,0.0,6.0,80,0.00,,,0.00,0,WeatherCatV1.10B1570,2013-06-02 05:31:00,
2013-06-02 01:36:00,72.8,66.3,30.03,SSW,196,2.0,3.0,80,0.00,,,0.00,0,WeatherCatV1.10B1570,2013-06-02 05:36:00,
2013-06-02 01:41:00,72.8,66.3,30.03,South,179,5.0,5.0,80,0.00,,,0.00,0,WeatherCatV1.10B1570,2013-06-02 05:41:00,
2013-06-02 01:46:00,72.6,66.1,30.03,South,176,2.0,5.0,80,0.00,,,0.00,0,WeatherCatV1.10B1570,2013-06-02 05:46:00,
2013-06-02 01:51:00,72.5,66.0,30.02,South,184,2.0,5.0,80,0.00,,,0.00,0,WeatherCatV1.10B1570,2013-06-02 05:51:00,
2013-06-02 01:56:00,72.4,66.2,30.02,SSW,199,2.0,3.0,81,0.00,,,0.00,0,WeatherCatV1.10B1570,2013-06-02 05:56:00,
2013-06-02 02:01:00,72.3,66.1,30.01,South,182,1.0,5.0,81,0.00,,,0.00,0,WeatherCatV1.10B1570,2013-06-02 06:01:00,
2013-06-02 02:06:00,72.2,66.0,30.01,SSE,155,2.0,3.0,81,0.00,,,0.00,0,WeatherCatV1.10B1570,2013-06-02 06:06:00,
2013-06-02 02:11:00,72.1,65.9,30.01,South,189,0.0,5.0,81,0.00,,,0.00,0,WeatherCatV1.10B1570,2013-06-02 06:11:00,
2013-06-02 02:16:00,72.0,65.8,30.01,South,181,2.0,3.0,81,0.00,,,0.00,0,WeatherCatV1.10B1570,2013-06-02 06:16:00,
2013-06-02 02:21:00,71.9,65.7,30.00,SSE,158,0.0,3.0,81,0.00,,,0.00,0,WeatherCatV1.10B1570,2013-06-02 06:21:00,
2013-06-02 02:26:00,71.8,65.6,30.00,SSE,168,3.0,5.0,81,0.00,,,0.00,0,WeatherCatV1.10B1570,2013-06-02 06:26:00,
2013-06-02 02:31:00,71.7,65.9,30.00,SSW,194,2.0,6.0,82,0.00,,,0.00,0,WeatherCatV1.10B1570,2013-06-02 06:31:00,
2013-06-02 02:36:00,71.7,65.9,30.00,SSE,168,0.0,5.0,82,0.00,,,0.00,0,WeatherCatV1.10B1570,2013-06-02 06:36:00,
2013-06-02 02:41:00,71.6,65.8,29.99,SSW,198,1.0,2.0,82,0.00,,,0.00,0,WeatherCatV1.10B1570,2013-06-02 06:41:00,
2013-06-02 02:46:00,71.5,65.7,29.99,SSE,166,0.0,2.0,82,0.00,,,0.00,0,WeatherCatV1.10B1570,2013-06-02 06:46:00,
2013-06-02 02:51:00,71.5,65.7,29.99,South,182,0.0,3.0,82,0.00,,,0.00,0,WeatherCatV1.10B1570,2013-06-02 06:51:00,
2013-06-02 02:56:00,71.4,65.6,29.99,South,175,2.0,5.0,82,0.00,,,0.00,0,WeatherCatV1.10B1570,2013-06-02 06:56:00,
2013-06-02 03:01:00,71.3,65.5,29.99,South,180,1.0,5.0,82,0.00,,,0.00,0,WeatherCatV1.10B1570,2013-06-02 07:01:00,
2013-06-02 03:06:00,71.2,65.4,29.99,SSE,160,0.0,2.0,82,0.00,,,0.00,0,WeatherCatV1.10B1570,2013-06-02 07:06:00,
2013-06-02 03:11:00,71.1,65.3,29.99,SSW,194,1.0,2.0,82,0.00,,,0.00,0,WeatherCatV1.10B1570,2013-06-02 07:11:00,
2013-06-02 03:16:00,71.0,65.6,29.99,SSW,195,2.0,3.0,83,0.00,,,0.00,0,WeatherCatV1.10B1570,2013-06-02 07:16:00,
2013-06-02 03:21:00,70.9,65.5,29.98,South,175,0.0,5.0,83,0.00,,,0.00,0,WeatherCatV1.10B1570,2013-06-02 07:21:00,
2013-06-02 03:26:00,70.8,65.4,29.98,South,191,2.0,5.0,83,0.00,,,0.00,0,WeatherCatV1.10B1570,2013-06-02 07:26:00,
2013-06-02 03:31:00,70.8,65.4,29.98,SSW,205,1.0,5.0,83,0.00,,,0.00,0,WeatherCatV1.10B1570,2013-06-02 07:31:00,
2013-06-02 03:36:00,70.7,65.3,29.98,SSW,213,0.0,3.0,83,0.00,,,0.00,0,WeatherCatV1.10B1570,2013-06-02 07:36:00,
2013-06-02 03:41:00,70.6,65.5,29.98,SSW,195,2.0,3.0,84,0.00,,,0.00,0,WeatherCatV1.10B1570,2013-06-02 07:41:00,
2013-06-02 03:46:00,70.6,65.5,29.98,South,178,2.0,3.0,84,0.00,,,0.00,0,WeatherCatV1.10B1570,2013-06-02 07:46:00,
2013-06-02 03:51:00,70.5,65.4,29.97,South,176,2.0,3.0,84,0.00,,,0.00,0,WeatherCatV1.10B1570,2013-06-02 07:51:00,
2013-06-02 03:56:00,70.4,65.3,29.97,South,181,1.0,5.0,84,0.00,,,0.00,0,WeatherCatV1.10B1570,2013-06-02 07:56:00,
2013-06-02 04:01:00,70.3,65.2,29.97,South,188,1.0,5.0,84,0.00,,,0.00,0,WeatherCatV1.10B1570,2013-06-02 08:01:00,
2013-06-02 04:06:00,70.3,65.2,29.97,South,183,2.0,3.0,84,0.00,,,0.00,0,WeatherCatV1.10B1570,2013-06-02 08:06:00,
2013-06-02 04:11:00,70.2,65.1,29.97,SW,222,0.0,3.0,84,0.00,,,0.00,0,WeatherCatV1.10B1570,2013-06-02 08:11:00,
2013-06-02 04:16:00,70.1,65.0,29.97,South,178,1.0,3.0,84,0.00,,,0.00,0,WeatherCatV1.10B1570,2013-06-02 08:16:00,
2013-06-02 04:21:00,70.0,65.3,29.97,South,185,2.0,3.0,85,0.00,,,0.00,0,WeatherCatV1.10B1570,2013-06-02 08:21:00,
2013-06-02 04:26:00,69.9,65.2,29.98,South,188,0.0,2.0,85,0.00,,,0.00,0,WeatherCatV1.10B1570,2013-06-02 08:26:00,
2013-06-02 04:31:00,69.8,65.1,29.98,SSW,193,1.0,3.0,85,0.00,,,0.00,0,WeatherCatV1.10B1570,2013-06-02 08:31:00,
2013-06-02 04:36:00,69.7,65.0,29.98,SSW,195,1.0,3.0,85,0.00,,,0.00,0,WeatherCatV1.10B1570,2013-06-02 08:36:00,
2013-06-02 04:41:00,69.6,64.9,29.98,SSW,195,0.0,2.0,85,0.00,,,0.00,0,WeatherCatV1.10B1570,2013-06-02 08:41:00,
2013-06-02 04:46:00,69.5,65.1,29.99,SSW,207,2.0,3.0,86,0.00,,,0.00,0,WeatherCatV1.10B1570,2013-06-02 08:46:00,
2013-06-02 04:51:00,69.5,65.1,29.99,South,191,0.0,3.0,86,0.00,,,0.00,0,WeatherCatV1.10B1570,2013-06-02 08:51:00,
2013-06-02 04:56:00,69.4,65.0,29.99,South,191,1.0,2.0,86,0.00,,,0.00,0,WeatherCatV1.10B1570,2013-06-02 08:56:00,
2013-06-02 05:01:00,69.3,64.9,29.99,SSW,193,2.0,3.0,86,0.00,,,0.00,0,WeatherCatV1.10B1570,2013-06-02 09:01:00,
2013-06-02 05:06:00,69.2,64.8,29.99,SSW,193,0.0,2.0,86,0.00,,,0.00,0,WeatherCatV1.10B1570,2013-06-02 09:06:00,
2013-06-02 05:11:00,69.2,64.8,29.99,South,169,2.0,5.0,86,0.00,,,0.00,0,WeatherCatV1.10B1570,2013-06-02 09:11:00,
2013-06-02 05:16:00,69.2,64.8,29.99,South,186,1.0,2.0,86,0.00,,,0.00,0,WeatherCatV1.10B1570,2013-06-02 09:16:00,
2013-06-02 05:21:00,69.1,65.1,29.99,ESE,113,1.0,3.0,87,0.00,,,0.00,0,WeatherCatV1.10B1570,2013-06-02 09:21:00,
2013-06-02 05:26:00,69.0,65.0,30.00,SSW,197,2.0,2.0,87,0.00,,,0.00,0,WeatherCatV1.10B1570,2013-06-02 09:26:00,
2013-06-02 05:31:00,69.0,65.0,30.00,South,180,1.0,2.0,87,0.00,,,0.00,0,WeatherCatV1.10B1570,2013-06-02 09:31:00,
2013-06-02 05:36:00,68.9,64.9,30.00,NE,36,0.0,1.0,87,0.00,,,0.00,0,WeatherCatV1.10B1570,2013-06-02 09:36:00,
2013-06-02 05:41:00,68.9,65.2,30.00,South,184,1.0,3.0,88,0.00,,,0.00,0,WeatherCatV1.10B1570,2013-06-02 09:41:00,
2013-06-02 05:46:00,68.8,65.1,29.99,South,186,1.0,2.0,88,0.00,,,0.00,0,WeatherCatV1.10B1570,2013-06-02 09:46:00,
2013-06-02 05:51:00,68.8,65.1,30.00,ENE,63,1.0,2.0,88,0.00,,,0.00,0,WeatherCatV1.10B1570,2013-06-02 09:51:00,
2013-06-02 05:56:00,68.8,65.1,30.00,South,172,1.0,1.0,88,0.00,,,0.00,0,WeatherCatV1.10B1570,2013-06-02 09:56:00,
2013-06-02 06:01:00,68.8,65.1,29.99,SSW,201,2.0,2.0,88,0.00,,,0.00,0,WeatherCatV1.10B1570,2013-06-02 10:01:00,
2013-06-02 06:06:00,68.8,65.1,29.99,SSW,195,0.0,3.0,88,0.00,,,0.00,5,WeatherCatV1.10B1570,2013-06-02 10:06:00,
2013-06-02 06:11:00,68.8,65.1,29.99,SSW,197,0.0,2.0,88,0.00,,,0.00,9,WeatherCatV1.10B1570,2013-06-02 10:11:00,
2013-06-02 06:16:00,68.8,65.1,29.99,SE,138,2.0,3.0,88,0.00,,,0.00,12,WeatherCatV1.10B1570,2013-06-02 10:16:00,
2013-06-02 06:21:00,68.8,65.1,29.99,South,179,2.0,3.0,88,0.00,,,0.00,16,WeatherCatV1.10B1570,2013-06-02 10:21:00,
2013-06-02 06:26:00,68.8,65.1,29.99,South,185,1.0,2.0,88,0.00,,,0.00,21,WeatherCatV1.10B1570,2013-06-02 10:26:00,
2013-06-02 06:31:00,68.8,65.1,30.00,South,185,0.0,2.0,88,0.00,,,0.00,23,WeatherCatV1.10B1570,2013-06-02 10:31:00,
2013-06-02 06:36:00,68.8,65.1,30.00,South,185,0.0,2.0,88,0.00,,,0.00,26,WeatherCatV1.10B1570,2013-06-02 10:36:00,
2013-06-02 06:41:00,68.8,65.1,30.00,South,186,0.0,2.0,88,0.00,,,0.00,26,WeatherCatV1.10B1570,2013-06-02 10:41:00,
2013-06-02 06:46:00,68.7,65.0,29.99,South,186,2.0,2.0,88,0.00,,,0.00,28,WeatherCatV1.10B1570,2013-06-02 10:46:00,
2013-06-02 06:51:00,68.6,64.9,29.99,South,185,2.0,2.0,88,0.00,,,0.00,23,WeatherCatV1.10B1570,2013-06-02 10:51:00,
2013-06-02 06:56:00,68.6,65.2,30.00,South,186,1.0,1.0,89,0.00,,,0.00,25,WeatherCatV1.10B1570,2013-06-02 10:56:00,
2013-06-02 07:01:00,68.5,65.1,30.00,South,186,0.0,1.0,89,0.00,,,0.00,28,WeatherCatV1.10B1570,2013-06-02 11:01:00,
2013-06-02 07:06:00,68.4,65.0,30.00,South,186,0.0,1.0,89,0.00,,,0.00,35,WeatherCatV1.10B1570,2013-06-02 11:06:00,
2013-06-02 07:11:00,68.4,65.0,30.00,South,186,0.0,2.0,89,0.00,,,0.00,47,WeatherCatV1.10B1570,2013-06-02 11:11:00,
2013-06-02 07:16:00,68.4,65.3,30.00,South,186,1.0,1.0,90,0.00,,,0.00,90,WeatherCatV1.10B1570,2013-06-02 11:16:00,
2013-06-02 07:21:00,68.5,65.4,30.00,South,186,0.0,3.0,90,0.00,,,0.00,72,WeatherCatV1.10B1570,2013-06-02 11:21:00,
2013-06-02 07:26:00,68.6,65.5,30.01,SW,229,0.0,2.0,90,0.00,,,0.00,91,WeatherCatV1.10B1570,2013-06-02 11:26:00,
2013-06-02 07:31:00,68.8,65.4,30.01,South,174,2.0,2.0,89,0.00,,,0.00,91,WeatherCatV1.10B1570,2013-06-02 11:31:00,
2013-06-02 07:35:00,68.9,65.5,30.01,South,174,1.0,3.0,89,0.00,,,0.00,104,WeatherCatV1.10B1570,2013-06-02 11:35:00,
2013-06-02 07:40:00,69.2,65.8,30.01,South,174,2.0,3.0,89,0.00,,,0.00,258,WeatherCatV1.10B1570,2013-06-02 11:40:00,
2013-06-02 07:45:00,69.6,66.2,30.01,SSW,193,0.0,3.0,89,0.00,,,0.00,135,WeatherCatV1.10B1570,2013-06-02 11:45:00,
2013-06-02 07:50:00,69.9,66.2,30.01,South,174,0.0,2.0,88,0.00,,,0.00,134,WeatherCatV1.10B1570,2013-06-02 11:50:00,
2013-06-02 07:55:00,70.1,66.0,30.00,South,186,1.0,1.0,87,0.00,,,0.00,105,WeatherCatV1.10B1570,2013-06-02 11:55:00,
2013-06-02 08:00:00,70.3,66.2,30.01,South,181,1.0,2.0,87,0.00,,,0.00,97,WeatherCatV1.10B1570,2013-06-02 12:00:00,
2013-06-02 08:05:00,70.4,66.0,30.01,South,182,1.0,1.0,86,0.00,,,0.00,244,WeatherCatV1.10B1570,2013-06-02 12:05:00,
2013-06-02 08:10:00,70.6,66.2,30.01,SSW,198,0.0,3.0,86,0.00,,,0.00,318,WeatherCatV1.10B1570,2013-06-02 12:10:00,
2013-06-02 08:15:00,71.2,66.4,30.01,SSW,200,1.0,5.0,85,0.00,,,0.00,338,WeatherCatV1.10B1570,2013-06-02 12:15:00,
2013-06-02 08:20:00,71.7,66.9,30.01,SSW,205,0.0,2.0,85,0.00,,,0.00,353,WeatherCatV1.10B1570,2013-06-02 12:20:00,
2013-06-02 08:25:00,72.2,67.1,30.01,SW,219,3.0,3.0,84,0.00,,,0.00,371,WeatherCatV1.10B1570,2013-06-02 12:25:00,
2013-06-02 08:30:00,72.7,66.9,30.01,WSW,249,0.0,3.0,82,0.00,,,0.00,381,WeatherCatV1.10B1570,2013-06-02 12:30:00,
2013-06-02 08:35:00,73.2,67.4,30.00,SW,223,1.0,5.0,82,0.00,,,0.00,403,WeatherCatV1.10B1570,2013-06-02 12:35:00,
2013-06-02 08:40:00,73.5,66.9,30.00,WSW,243,1.0,3.0,80,0.00,,,0.00,413,WeatherCatV1.10B1570,2013-06-02 12:40:00,
2013-06-02 08:45:00,73.9,67.3,30.00,SSW,197,3.0,5.0,80,0.00,,,0.00,353,WeatherCatV1.10B1570,2013-06-02 12:45:00,
2013-06-02 08:50:00,74.2,66.9,30.00,South,191,1.0,3.0,78,0.00,,,0.00,348,WeatherCatV1.10B1570,2013-06-02 12:50:00,
2013-06-02 08:55:00,74.6,67.3,30.00,SSW,193,2.0,5.0,78,0.00,,,0.00,454,WeatherCatV1.10B1570,2013-06-02 12:55:00,
2013-06-02 09:00:00,74.9,67.2,30.00,South,179,3.0,3.0,77,0.00,,,0.00,462,WeatherCatV1.10B1570,2013-06-02 13:00:00,
2013-06-02 09:05:00,75.2,67.1,30.00,SW,220,2.0,7.0,76,0.00,,,0.00,496,WeatherCatV1.10B1570,2013-06-02 13:05:00,
2013-06-02 09:10:00,75.8,67.7,30.00,SSW,211,2.0,3.0,76,0.00,,,0.00,526,WeatherCatV1.10B1570,2013-06-02 13:10:00,
2013-06-02 09:15:00,76.2,67.3,30.00,SSW,211,1.0,5.0,74,0.00,,,0.00,548,WeatherCatV1.10B1570,2013-06-02 13:15:00,
2013-06-02 09:20:00,76.7,66.6,30.00,West,271,3.0,6.0,71,0.00,,,0.00,568,WeatherCatV1.10B1570,2013-06-02 13:20:00,
2013-06-02 09:25:00,77.2,66.6,29.99,SSW,203,2.0,8.0,70,0.00,,,0.00,578,WeatherCatV1.10B1570,2013-06-02 13:25:00,
2013-06-02 09:30:00,77.6,66.6,29.99,SW,216,2.0,6.0,69,0.00,,,0.00,336,WeatherCatV1.10B1570,2013-06-02 13:30:00,
2013-06-02 09:35:00,78.0,67.0,29.99,SSW,201,1.0,3.0,69,0.00,,,0.00,693,WeatherCatV1.10B1570,2013-06-02 13:35:00,
2013-06-02 09:40:00,78.7,67.2,29.99,NNW,332,2.0,5.0,68,0.00,,,0.00,705,WeatherCatV1.10B1570,2013-06-02 13:40:00,
2013-06-02 09:45:00,79.4,67.0,29.99,South,180,5.0,9.0,66,0.00,,,0.00,719,WeatherCatV1.10B1570,2013-06-02 13:45:00,
2013-06-02 09:50:00,79.8,67.0,29.98,WSW,245,4.0,5.0,65,0.00,,,0.00,345,WeatherCatV1.10B1570,2013-06-02 13:50:00,
2013-06-02 09:55:00,79.7,66.9,29.99,South,171,0.0,3.0,65,0.00,,,0.00,387,WeatherCatV1.10B1570,2013-06-02 13:55:00,
2013-06-02 10:00:00,79.4,66.1,29.99,WSW,245,2.0,5.0,64,0.00,,,0.00,436,WeatherCatV1.10B1570,2013-06-02 14:00:00,
2013-06-02 10:05:00,79.2,66.8,29.99,ENE,63,3.0,5.0,66,0.00,,,0.00,394,WeatherCatV1.10B1570,2013-06-02 14:05:00,
2013-06-02 10:10:00,79.0,67.1,29.99,SSW,207,0.0,4.0,67,0.00,,,0.00,388,WeatherCatV1.10B1570,2013-06-02 14:10:00,
2013-06-02 10:15:00,79.2,66.8,29.99,SSW,196,1.0,3.0,66,0.00,,,0.00,487,WeatherCatV1.10B1570,2013-06-02 14:15:00,
2013-06-02 10:20:00,79.2,67.3,29.99,WSW,245,1.0,4.0,67,0.00,,,0.00,424,WeatherCatV1.10B1570,2013-06-02 14:20:00,
2013-06-02 10:25:00,78.9,67.4,29.99,WNW,290,1.0,1.0,68,0.00,,,0.00,485,WeatherCatV1.10B1570,2013-06-02 14:25:00,
2013-06-02 10:30:00,79.5,68.0,29.99,West,278,1.0,1.0,68,0.00,,,0.00,517,WeatherCatV1.10B1570,2013-06-02 14:30:00,
2013-06-02 10:35:00,80.3,67.4,29.99,SSW,207,1.0,3.0,65,0.00,,,0.00,796,WeatherCatV1.10B1570,2013-06-02 14:35:00,
2013-06-02 10:40:00,81.1,67.3,29.99,SSW,199,3.0,5.0,63,0.00,,,0.00,875,WeatherCatV1.10B1570,2013-06-02 14:40:00,
2013-06-02 10:45:00,82.0,68.1,29.99,SSW,209,0.0,2.0,63,0.00,,,0.00,879,WeatherCatV1.10B1570,2013-06-02 14:45:00,
2013-06-02 10:50:00,82.7,67.9,29.99,SSW,195,0.0,3.0,61,0.00,,,0.00,693,WeatherCatV1.10B1570,2013-06-02 14:50:00,
2013-06-02 10:55:00,82.2,66.9,29.99,SSW,193,3.0,3.0,60,0.00,,,0.00,438,WeatherCatV1.10B1570,2013-06-02 14:55:00,
2013-06-02 11:00:00,81.9,67.1,29.99,SW,220,0.0,2.0,61,0.00,,,0.00,394,WeatherCatV1.10B1570,2013-06-02 15:00:00,
2013-06-02 11:05:00,81.6,67.8,29.99,SSW,199,0.0,4.0,63,0.00,,,0.00,390,WeatherCatV1.10B1570,2013-06-02 15:05:00,
2013-06-02 11:10:00,81.6,67.8,29.99,South,184,2.0,3.0,63,0.00,,,0.00,380,WeatherCatV1.10B1570,2013-06-02 15:10:00,
2013-06-02 11:15:00,81.5,68.1,30.00,South,180,2.0,2.0,64,0.00,,,0.00,432,WeatherCatV1.10B1570,2013-06-02 15:15:00,
2013-06-02 11:20:00,81.2,66.9,29.99,SSW,206,1.0,6.0,62,0.00,,,0.00,615,WeatherCatV1.10B1570,2013-06-02 15:20:00,
2013-06-02 11:25:00,81.1,66.8,30.00,SSW,207,1.0,2.0,62,0.00,,,0.00,526,WeatherCatV1.10B1570,2013-06-02 15:25:00,
2013-06-02 11:30:00,81.5,67.7,29.99,SSW,211,2.0,5.0,63,0.00,,,0.00,582,WeatherCatV1.10B1570,2013-06-02 15:30:00,
2013-06-02 11:35:00,81.9,68.0,30.00,SW,222,2.0,2.0,63,0.00,,,0.00,485,WeatherCatV1.10B1570,2013-06-02 15:35:00,
2013-06-02 11:40:00,82.2,67.9,30.00,WNW,292,0.0,4.0,62,0.00,,,0.00,489,WeatherCatV1.10B1570,2013-06-02 15:40:00,
2013-06-02 11:45:00,82.3,69.3,30.00,SW,215,1.0,3.0,65,0.00,,,0.00,496,WeatherCatV1.10B1570,2013-06-02 15:45:00,
2013-06-02 11:50:00,82.1,67.3,29.99,SE,146,2.0,4.0,61,0.00,,,0.00,550,WeatherCatV1.10B1570,2013-06-02 15:50:00,
2013-06-02 11:55:00,82.0,66.7,30.00,SW,219,1.0,3.0,60,0.00,,,0.00,543,WeatherCatV1.10B1570,2013-06-02 15:55:00,
2013-06-02 12:00:00,82.1,67.3,30.00,SSW,194,2.0,2.0,61,0.00,,,0.00,415,WeatherCatV1.10B1570,2013-06-02 16:00:00,
2013-06-02 12:05:00,81.8,67.0,30.00,SSW,213,3.0,5.0,61,0.00,,,0.00,336,WeatherCatV1.10B1570,2013-06-02 16:05:00,
2013-06-02 12:10:00,81.1,66.8,30.00,SSW,209,2.0,5.0,62,0.00,,,0.00,362,WeatherCatV1.10B1570,2013-06-02 16:10:00,
2013-06-02 12:15:00,80.7,66.4,30.00,South,180,2.0,3.0,62,0.00,,,0.00,452,WeatherCatV1.10B1570,2013-06-02 16:15:00,
2013-06-02 12:20:00,80.9,67.6,30.00,SSW,213,2.0,4.0,64,0.00,,,0.00,533,WeatherCatV1.10B1570,2013-06-02 16:20:00,
2013-06-02 12:25:00,81.3,67.9,30.00,SSW,194,0.0,1.0,64,0.00,,,0.00,575,WeatherCatV1.10B1570,2013-06-02 16:25:00,
2013-06-02 12:30:00,82.0,68.6,30.00,SSW,192,1.0,2.0,64,0.00,,,0.00,540,WeatherCatV1.10B1570,2013-06-02 16:30:00,
2013-06-02 12:35:00,81.8,68.4,30.00,South,173,5.0,6.0,64,0.00,,,0.00,506,WeatherCatV1.10B1570,2013-06-02 16:35:00,
2013-06-02 12:40:00,81.2,67.4,30.00,South,176,2.0,3.0,63,0.00,,,0.00,1034,WeatherCatV1.10B1570,2013-06-02 16:40:00,
2013-06-02 12:45:00,81.7,68.8,30.00,South,191,3.0,4.0,65,0.00,,,0.00,635,WeatherCatV1.10B1570,2013-06-02 16:45:00,
2013-06-02 12:50:00,82.5,67.7,29.99,East,95,2.0,3.0,61,0.00,,,0.00,877,WeatherCatV1.10B1570,2013-06-02 16:50:00,
2013-06-02 12:55:00,83.0,67.2,30.00,SSW,197,2.0,4.0,59,0.00,,,0.00,631,WeatherCatV1.10B1570,2013-06-02 16:55:00,
2013-06-02 13:00:00,82.9,66.6,29.99,SSW,206,1.0,5.0,58,0.00,,,0.00,1037,WeatherCatV1.10B1570,2013-06-02 17:00:00,
2013-06-02 13:05:00,83.6,68.7,29.99,SSW,200,1.0,3.0,61,0.00,,,0.00,802,WeatherCatV1.10B1570,2013-06-02 17:05:00,
2013-06-02 13:10:00,84.2,68.3,29.99,SW,236,2.0,5.0,59,0.00,,,0.00,802,WeatherCatV1.10B1570,2013-06-02 17:10:00,
2013-06-02 13:15:00,84.1,67.7,29.99,SSE,166,2.0,4.0,58,0.00,,,0.00,450,WeatherCatV1.10B1570,2013-06-02 17:15:00,
2013-06-02 13:20:00,83.4,67.5,29.99,SSW,210,1.0,2.0,59,0.00,,,0.00,476,WeatherCatV1.10B1570,2013-06-02 17:20:00,
2013-06-02 13:25:00,83.6,68.2,29.99,SSE,148,1.0,5.0,60,0.00,,,0.00,517,WeatherCatV1.10B1570,2013-06-02 17:25:00,
2013-06-02 13:30:00,84.0,68.1,29.99,South,170,1.0,2.0,59,0.00,,,0.00,431,WeatherCatV1.10B1570,2013-06-02 17:30:00,
2013-06-02 13:35:00,83.4,67.0,29.99,SSW,196,2.0,3.0,58,0.00,,,0.00,443,WeatherCatV1.10B1570,2013-06-02 17:35:00,
2013-06-02 13:40:00,83.3,67.4,29.99,SW,223,1.0,2.0,59,0.00,,,0.00,301,WeatherCatV1.10B1570,2013-06-02 17:40:00,
2013-06-02 13:45:00,83.3,68.4,29.99,SW,222,1.0,1.0,61,0.00,,,0.00,301,WeatherCatV1.10B1570,2013-06-02 17:45:00,
2013-06-02 13:50:00,83.0,67.7,29.99,South,182,1.0,2.0,60,0.00,,,0.00,329,WeatherCatV1.10B1570,2013-06-02 17:50:00,
2013-06-02 13:55:00,82.8,68.4,29.98,South,180,1.0,2.0,62,0.00,,,0.00,425,WeatherCatV1.10B1570,2013-06-02 17:55:00,
2013-06-02 14:00:00,82.7,68.3,29.98,South,190,2.0,3.0,62,0.00,,,0.00,431,WeatherCatV1.10B1570,2013-06-02 18:00:00,
2013-06-02 14:05:00,82.7,66.9,29.98,South,182,1.0,3.0,59,0.00,,,0.00,480,WeatherCatV1.10B1570,2013-06-02 18:05:00,
2013-06-02 14:10:00,82.9,68.0,29.98,SSW,197,1.0,3.0,61,0.00,,,0.00,615,WeatherCatV1.10B1570,2013-06-02 18:10:00,
2013-06-02 14:15:00,83.3,67.9,29.98,SE,146,0.0,2.0,60,0.00,,,0.00,429,WeatherCatV1.10B1570,2013-06-02 18:15:00,
2013-06-02 14:20:00,83.7,68.8,29.97,SSW,193,2.0,3.0,61,0.00,,,0.00,446,WeatherCatV1.10B1570,2013-06-02 18:20:00,
2013-06-02 14:25:00,83.8,68.9,29.97,SSW,199,3.0,6.0,61,0.00,,,0.00,475,WeatherCatV1.10B1570,2013-06-02 18:25:00,
2013-06-02 14:30:00,83.2,67.8,29.97,SSW,203,0.0,3.0,60,0.00,,,0.00,582,WeatherCatV1.10B1570,2013-06-02 18:30:00,
2013-06-02 14:35:00,83.3,67.9,29.97,SSW,203,2.0,3.0,60,0.00,,,0.00,431,WeatherCatV1.10B1570,2013-06-02 18:35:00,
2013-06-02 14:40:00,82.9,68.0,29.96,SSW,203,4.0,5.0,61,0.00,,,0.00,230,WeatherCatV1.10B1570,2013-06-02 18:40:00,
2013-06-02 14:45:00,82.4,67.6,29.96,SSW,202,3.0,4.0,61,0.00,,,0.00,339,WeatherCatV1.10B1570,2013-06-02 18:45:00,
2013-06-02 14:50:00,82.0,68.1,29.95,South,176,3.0,3.0,63,0.00,,,0.00,376,WeatherCatV1.10B1570,2013-06-02 18:50:00,
2013-06-02 14:55:00,82.1,68.2,29.95,SSE,162,1.0,3.0,63,0.00,,,0.00,694,WeatherCatV1.10B1570,2013-06-02 18:55:00,
2013-06-02 15:00:00,82.6,68.2,29.95,South,180,1.0,3.0,62,0.00,,,0.00,694,WeatherCatV1.10B1570,2013-06-02 19:00:00,
2013-06-02 15:05:00,83.4,69.5,29.94,SW,224,1.0,6.0,63,0.00,,,0.00,990,WeatherCatV1.10B1570,2013-06-02 19:05:00,
2013-06-02 15:10:00,84.3,68.9,29.95,SSE,151,3.0,6.0,60,0.00,,,0.00,990,WeatherCatV1.10B1570,2013-06-02 19:10:00,
2013-06-02 15:15:00,83.9,67.5,29.94,South,170,2.0,6.0,58,0.00,,,0.00,436,WeatherCatV1.10B1570,2013-06-02 19:15:00,
2013-06-02 15:20:00,83.6,68.7,29.94,SSW,201,3.0,4.0,61,0.00,,,0.00,436,WeatherCatV1.10B1570,2013-06-02 19:20:00,
2013-06-02 15:25:00,83.9,67.5,29.94,South,171,3.0,6.0,58,0.00,,,0.00,585,WeatherCatV1.10B1570,2013-06-02 19:25:00,
2013-06-02 15:30:00,84.1,68.2,29.94,SSW,195,1.0,3.0,59,0.00,,,0.00,1025,WeatherCatV1.10B1570,2013-06-02 19:30:00,
2013-06-02 15:35:00,84.7,67.2,29.94,South,191,0.0,3.0,56,0.00,,,0.00,418,WeatherCatV1.10B1570,2013-06-02 19:35:00,
2013-06-02 15:40:00,84.8,67.3,29.94,SSW,197,3.0,4.0,56,0.00,,,0.00,817,WeatherCatV1.10B1570,2013-06-02 19:40:00,
2013-06-02 15:45:00,84.7,67.2,29.94,SSW,207,1.0,5.0,56,0.00,,,0.00,327,WeatherCatV1.10B1570,2013-06-02 19:45:00,
2013-06-02 15:50:00,84.5,67.6,29.94,South,184,2.0,5.0,57,0.00,,,0.00,264,WeatherCatV1.10B1570,2013-06-02 19:50:00,
2013-06-02 15:55:00,84.2,66.8,29.93,SSW,192,1.0,2.0,56,0.00,,,0.00,251,WeatherCatV1.10B1570,2013-06-02 19:55:00,
2013-06-02 16:00:00,83.9,66.5,29.93,SSW,201,2.0,2.0,56,0.00,,,0.00,156,WeatherCatV1.10B1570,2013-06-02 20:00:00,
2013-06-02 16:05:00,83.2,66.9,29.93,South,178,3.0,5.0,58,0.00,,,0.00,141,WeatherCatV1.10B1570,2013-06-02 20:05:00,
2013-06-02 16:10:00,82.4,66.1,29.93,South,186,0.0,1.0,58,0.00,,,0.00,116,WeatherCatV1.10B1570,2013-06-02 20:10:00,
2013-06-02 16:15:00,82.0,66.2,29.93,South,181,1.0,2.0,59,0.00,,,0.00,137,WeatherCatV1.10B1570,2013-06-02 20:15:00,
2013-06-02 16:20:00,81.8,67.0,29.93,South,181,1.0,2.0,61,0.00,,,0.00,144,WeatherCatV1.10B1570,2013-06-02 20:20:00,
2013-06-02 16:25:00,81.5,66.7,29.93,South,180,3.0,3.0,61,0.00,,,0.00,169,WeatherCatV1.10B1570,2013-06-02 20:25:00,
2013-06-02 16:30:00,81.4,66.2,29.93,SSW,199,1.0,2.0,60,0.00,,,0.00,174,WeatherCatV1.10B1570,2013-06-02 20:30:00,
2013-06-02 16:35:00,81.4,66.2,29.93,South,186,1.0,5.0,60,0.00,,,0.00,158,WeatherCatV1.10B1570,2013-06-02 20:35:00,
2013-06-02 16:40:00,81.2,66.4,29.93,South,190,0.0,3.0,61,0.00,,,0.00,139,WeatherCatV1.10B1570,2013-06-02 20:40:00,
2013-06-02 16:45:00,81.1,65.9,29.93,SE,140,0.0,3.0,60,0.00,,,0.00,153,WeatherCatV1.10B1570,2013-06-02 20:45:00,
2013-06-02 16:50:00,81.1,66.4,29.92,SSW,196,0.0,2.0,61,0.00,,,0.00,141,WeatherCatV1.10B1570,2013-06-02 20:50:00,
2013-06-02 16:55:00,81.1,66.4,29.92,South,170,1.0,2.0,61,0.00,,,0.00,128,WeatherCatV1.10B1570,2013-06-02 20:55:00,
2013-06-02 17:00:00,80.9,65.7,29.92,SE,131,0.0,1.0,60,0.00,,,0.00,114,WeatherCatV1.10B1570,2013-06-02 21:00:00,
2013-06-02 17:05:00,81.0,66.3,29.92,SSE,147,1.0,1.0,61,0.00,,,0.00,120,WeatherCatV1.10B1570,2013-06-02 21:05:00,
2013-06-02 17:10:00,80.9,66.2,29.92,SSE,151,1.0,3.0,61,0.00,,,0.00,135,WeatherCatV1.10B1570,2013-06-02 21:10:00,
2013-06-02 17:15:00,80.9,66.6,29.92,ESE,123,2.0,2.0,62,0.00,,,0.00,134,WeatherCatV1.10B1570,2013-06-02 21:15:00,
2013-06-02 17:20:00,80.8,66.5,29.92,SSE,159,2.0,2.0,62,0.00,,,0.00,100,WeatherCatV1.10B1570,2013-06-02 21:20:00,
2013-06-02 17:25:00,80.7,66.9,29.92,SW,220,0.0,2.0,63,0.00,,,0.00,123,WeatherCatV1.10B1570,2013-06-02 21:25:00,
2013-06-02 17:30:00,80.6,66.8,29.92,ESE,116,1.0,1.0,63,0.00,,,0.00,141,WeatherCatV1.10B1570,2013-06-02 21:30:00,
2013-06-02 17:35:00,80.6,67.3,29.93,SSE,157,0.0,1.0,64,0.00,,,0.00,113,WeatherCatV1.10B1570,2013-06-02 21:35:00,
2013-06-02 17:40:00,80.6,67.3,29.93,SSE,157,0.0,0.0,64,0.00,,,0.00,84,WeatherCatV1.10B1570,2013-06-02 21:40:00,
2013-06-02 17:45:00,80.6,67.3,29.93,SSE,157,0.0,0.0,64,0.00,,,0.00,100,WeatherCatV1.10B1570,2013-06-02 21:45:00,
2013-06-02 17:50:00,80.6,67.3,29.93,SSE,157,0.0,0.0,64,0.00,,,0.00,83,WeatherCatV1.10B1570,2013-06-02 21:50:00,
2013-06-02 17:55:00,80.5,67.2,29.93,NNW,335,0.0,3.0,64,0.00,,,0.00,46,WeatherCatV1.10B1570,2013-06-02 21:55:00,
2013-06-02 18:00:00,80.4,67.5,29.93,NNW,344,3.0,5.0,65,0.00,,,0.00,19,WeatherCatV1.10B1570,2013-06-02 22:00:00,
2013-06-02 18:05:00,79.3,68.2,29.93,ESE,106,2.0,4.0,69,0.00,,,0.00,14,WeatherCatV1.10B1570,2013-06-02 22:05:00,
2013-06-02 18:10:00,78.1,68.3,29.94,NNW,327,2.0,6.0,72,0.00,,,0.00,11,WeatherCatV1.10B1570,2013-06-02 22:10:00,
2013-06-02 18:15:00,77.1,68.5,29.94,NW,310,1.0,4.0,75,0.00,,,0.00,18,WeatherCatV1.10B1570,2013-06-02 22:15:00,
2013-06-02 18:20:00,76.3,68.5,29.94,NNW,332,3.0,4.0,77,0.00,,,0.00,16,WeatherCatV1.10B1570,2013-06-02 22:20:00,
2013-06-02 18:25:00,75.4,68.4,29.93,NW,326,4.0,6.0,79,0.00,,,0.00,12,WeatherCatV1.10B1570,2013-06-02 22:25:00,
2013-06-02 18:30:00,74.4,68.2,29.93,NNW,338,3.0,5.0,81,0.00,,,0.01,33,WeatherCatV1.10B1570,2013-06-02 22:30:00,
2013-06-02 18:35:00,73.6,67.8,29.94,NW,319,2.0,3.0,82,0.00,,,0.01,28,WeatherCatV1.10B1570,2013-06-02 22:35:00,
2013-06-02 18:40:00,73.2,68.1,29.94,East,81,1.0,3.0,84,0.00,,,0.01,25,WeatherCatV1.10B1570,2013-06-02 22:40:00,
2013-06-02 18:45:00,72.8,68.0,29.94,WSW,257,0.0,1.0,85,0.00,,,0.01,28,WeatherCatV1.10B1570,2013-06-02 22:45:00,
2013-06-02 18:50:00,72.3,67.5,29.94,North,11,1.0,3.0,85,0.00,,,0.01,25,WeatherCatV1.10B1570,2013-06-02 22:50:00,
2013-06-02 18:55:00,71.9,67.5,29.94,North,7,2.0,4.0,86,0.00,,,0.01,18,WeatherCatV1.10B1570,2013-06-02 22:55:00,
2013-06-02 19:00:00,71.7,67.6,29.94,North,8,0.0,0.0,87,0.00,,,0.01,16,WeatherCatV1.10B1570,2013-06-02 23:00:00,
2013-06-02 19:05:00,71.5,67.4,29.94,NNW,329,0.0,0.0,87,0.00,,,0.01,14,WeatherCatV1.10B1570,2013-06-02 23:05:00,
2013-06-02 19:10:00,71.4,67.3,29.94,NNW,329,0.0,0.0,87,0.00,,,0.01,23,WeatherCatV1.10B1570,2013-06-02 23:10:00,
2013-06-02 19:15:00,71.2,67.5,29.93,East,80,0.0,2.0,88,0.00,,,0.01,26,WeatherCatV1.10B1570,2013-06-02 23:15:00,
2013-06-02 19:20:00,71.0,67.3,29.93,East,95,0.0,2.0,88,0.00,,,0.01,30,WeatherCatV1.10B1570,2013-06-02 23:20:00,
2013-06-02 19:25:00,70.8,67.1,29.94,East,95,0.0,2.0,88,0.00,,,0.01,23,WeatherCatV1.10B1570,2013-06-02 23:25:00,
2013-06-02 19:30:00,70.6,67.2,29.94,East,95,0.0,2.0,89,0.00,,,0.01,19,WeatherCatV1.10B1570,2013-06-02 23:30:00,
2013-06-02 19:35:00,70.6,67.2,29.94,East,95,0.0,0.0,89,0.00,,,0.01,14,WeatherCatV1.10B1570,2013-06-02 23:35:00,
2013-06-02 19:40:00,70.5,67.4,29.94,East,95,0.0,0.0,90,0.00,,,0.01,7,WeatherCatV1.10B1570,2013-06-02 23:40:00,
2013-06-02 19:45:00,70.4,67.3,29.95,East,85,0.0,1.0,90,0.00,,,0.01,5,WeatherCatV1.10B1570,2013-06-02 23:45:00,
2013-06-02 19:50:00,70.3,67.2,29.95,East,85,0.0,0.0,90,0.00,,,0.01,5,WeatherCatV1.10B1570,2013-06-02 23:50:00,
2013-06-02 19:55:00,70.3,67.2,29.96,East,85,0.0,0.0,90,0.00,,,0.01,0,WeatherCatV1.10B1570,2013-06-02 23:55:00,
2013-06-02 20:00:00,70.3,67.2,29.96,East,85,0.0,0.0,90,0.00,,,0.01,0,WeatherCatV1.10B1570,2013-06-03 00:00:00,
2013-06-02 20:05:00,70.2,67.4,29.96,NW,316,1.0,3.0,91,0.00,,,0.02,0,WeatherCatV1.10B1570,2013-06-03 00:05:00,
2013-06-02 20:10:00,70.2,67.4,29.96,WNW,301,1.0,2.0,91,0.11,,,0.03,0,WeatherCatV1.10B1570,2013-06-03 00:10:00,
2013-06-02 20:15:00,70.0,67.6,29.96,NNW,341,2.0,3.0,92,0.08,,,0.03,0,WeatherCatV1.10B1570,2013-06-03 00:15:00,
2013-06-02 20:20:00,69.9,67.8,29.96,NNW,339,2.0,3.0,93,0.05,,,0.03,0,WeatherCatV1.10B1570,2013-06-03 00:20:00,
2013-06-02 20:25:00,69.9,67.8,29.96,North,355,1.0,3.0,93,0.00,,,0.03,0,WeatherCatV1.10B1570,2013-06-03 00:25:00,
2013-06-02 20:30:00,69.8,68.0,29.96,NW,326,2.0,3.0,94,0.00,,,0.03,0,WeatherCatV1.10B1570,2013-06-03 00:30:00,
2013-06-02 20:35:00,69.8,68.0,29.95,NNW,332,0.0,1.0,94,0.00,,,0.03,0,WeatherCatV1.10B1570,2013-06-03 00:35:00,
2013-06-02 20:40:00,69.7,67.9,29.95,NW,322,1.0,5.0,94,0.00,,,0.03,0,WeatherCatV1.10B1570,2013-06-03 00:40:00,
2013-06-02 20:45:00,69.7,67.9,29.96,WNW,290,1.0,2.0,94,0.00,,,0.03,0,WeatherCatV1.10B1570,2013-06-03 00:45:00,
2013-06-02 20:50:00,69.7,67.9,29.95,NW,317,1.0,3.0,94,0.00,,,0.04,0,WeatherCatV1.10B1570,2013-06-03 00:50:00,
2013-06-02 20:55:00,69.7,68.2,29.95,NW,325,2.0,3.0,95,0.00,,,0.04,0,WeatherCatV1.10B1570,2013-06-03 00:55:00,
2013-06-02 21:00:00,69.6,68.1,29.95,NW,317,3.0,3.0,95,0.00,,,0.04,0,WeatherCatV1.10B1570,2013-06-03 01:00:00,
2013-06-02 21:05:00,69.6,68.1,29.95,WNW,288,1.0,2.0,95,0.00,,,0.04,0,WeatherCatV1.10B1570,2013-06-03 01:05:00,
2013-06-02 21:10:00,69.6,68.1,29.94,WNW,284,2.0,2.0,95,0.00,,,0.04,0,WeatherCatV1.10B1570,2013-06-03 01:10:00,
2013-06-02 21:15:00,69.6,68.1,29.94,WNW,284,0.0,0.0,95,0.00,,,0.05,0,WeatherCatV1.10B1570,2013-06-03 01:15:00,
2013-06-02 21:20:00,69.5,68.0,29.93,WNW,284,0.0,0.0,95,0.00,,,0.05,0,WeatherCatV1.10B1570,2013-06-03 01:20:00,
2013-06-02 21:25:00,69.5,68.0,29.93,WNW,284,0.0,0.0,95,0.00,,,0.05,0,WeatherCatV1.10B1570,2013-06-03 01:25:00,
2013-06-02 21:30:00,69.5,68.0,29.92,WNW,284,0.0,0.0,95,0.00,,,0.05,0,WeatherCatV1.10B1570,2013-06-03 01:30:00,
2013-06-02 21:35:00,69.5,68.0,29.92,WNW,284,0.0,0.0,95,0.00,,,0.05,0,WeatherCatV1.10B1570,2013-06-03 01:35:00,
2013-06-02 21:40:00,69.4,67.9,29.91,WNW,285,0.0,0.0,95,0.00,,,0.05,0,WeatherCatV1.10B1570,2013-06-03 01:40:00,
2013-06-02 21:45:00,69.4,67.9,29.91,WNW,285,0.0,0.0,95,0.00,,,0.05,0,WeatherCatV1.10B1570,2013-06-03 01:45:00,
2013-06-02 21:50:00,69.4,67.9,29.91,WNW,285,0.0,0.0,95,0.00,,,0.05,0,WeatherCatV1.10B1570,2013-06-03 01:50:00,
2013-06-02 21:55:00,69.3,67.8,29.92,WNW,285,0.0,0.0,95,0.00,,,0.05,0,WeatherCatV1.10B1570,2013-06-03 01:55:00,
2013-06-02 22:00:00,69.3,67.8,29.92,WNW,285,0.0,0.0,95,0.00,,,0.05,0,WeatherCatV1.10B1570,2013-06-03 02:00:00,
2013-06-02 22:05:00,69.2,67.7,29.93,South,178,3.0,3.0,95,0.00,,,0.05,0,WeatherCatV1.10B1570,2013-06-03 02:05:00,
2013-06-02 22:10:00,69.1,67.9,29.93,South,169,2.0,3.0,96,0.00,,,0.05,0,WeatherCatV1.10B1570,2013-06-03 02:10:00,
2013-06-02 22:15:00,69.1,67.9,29.94,South,169,0.0,1.0,96,0.00,,,0.05,0,WeatherCatV1.10B1570,2013-06-03 02:15:00,
2013-06-02 22:20:00,69.1,67.9,29.94,South,169,0.0,2.0,96,0.00,,,0.05,0,WeatherCatV1.10B1570,2013-06-03 02:20:00,
2013-06-02 22:25:00,69.1,67.9,29.94,South,169,1.0,3.0,96,0.00,,,0.05,0,WeatherCatV1.10B1570,2013-06-03 02:25:00,
2013-06-02 22:30:00,69.0,67.8,29.94,South,169,1.0,2.0,96,0.00,,,0.05,0,WeatherCatV1.10B1570,2013-06-03 02:30:00,
2013-06-02 22:35:00,69.0,68.1,29.94,South,169,0.0,1.0,97,0.00,,,0.05,0,WeatherCatV1.10B1570,2013-06-03 02:35:00,
2013-06-02 22:40:00,69.1,68.2,29.95,South,169,0.0,1.0,97,0.00,,,0.05,0,WeatherCatV1.10B1570,2013-06-03 02:40:00,
2013-06-02 22:45:00,69.1,68.2,29.95,South,169,0.0,1.0,97,0.00,,,0.05,0,WeatherCatV1.10B1570,2013-06-03 02:45:00,
2013-06-02 22:50:00,69.1,68.2,29.95,South,169,0.0,0.0,97,0.00,,,0.05,0,WeatherCatV1.10B1570,2013-06-03 02:50:00,
2013-06-02 22:55:00,69.1,68.2,29.95,South,169,0.0,2.0,97,0.00,,,0.05,0,WeatherCatV1.10B1570,2013-06-03 02:55:00,
2013-06-02 23:00:00,69.1,68.2,29.95,South,169,0.0,1.0,97,0.00,,,0.05,0,WeatherCatV1.10B1570,2013-06-03 03:00:00,
2013-06-02 23:05:00,69.1,68.2,29.95,South,169,0.0,1.0,97,0.00,,,0.05,0,WeatherCatV1.10B1570,2013-06-03 03:05:00,
2013-06-02 23:10:00,69.1,68.2,29.95,South,169,0.0,0.0,97,0.00,,,0.05,0,WeatherCatV1.10B1570,2013-06-03 03:10:00,
2013-06-02 23:15:00,69.2,68.3,29.95,South,169,0.0,1.0,97,0.00,,,0.05,0,WeatherCatV1.10B1570,2013-06-03 03:15:00,
2013-06-02 23:20:00,69.1,68.2,29.95,South,169,1.0,2.0,97,0.00,,,0.05,0,WeatherCatV1.10B1570,2013-06-03 03:20:00,
2013-06-02 23:25:00,69.1,68.2,29.95,South,169,1.0,2.0,97,0.00,,,0.05,0,WeatherCatV1.10B1570,2013-06-03 03:25:00,
2013-06-02 23:30:00,69.1,68.2,29.95,South,169,0.0,2.0,97,0.00,,,0.05,0,WeatherCatV1.10B1570,2013-06-03 03:30:00,
2013-06-02 23:35:00,69.1,68.2,29.94,SSE,168,1.0,3.0,97,0.00,,,0.05,0,WeatherCatV1.10B1570,2013-06-03 03:35:00,
2013-06-02 23:40:00,69.1,68.2,29.94,SSE,165,2.0,2.0,97,0.00,,,0.05,0,WeatherCatV1.10B1570,2013-06-03 03:40:00,
2013-06-02 23:45:00,69.1,68.2,29.94,SSE,165,2.0,2.0,97,0.00,,,0.05,0,WeatherCatV1.10B1570,2013-06-03 03:45:00,
2013-06-02 23:50:00,69.0,68.1,29.94,SSE,165,2.0,3.0,97,0.00,,,0.06,0,WeatherCatV1.10B1570,2013-06-03 03:50:00,
2013-06-02 23:55:00,69.0,68.1,29.94,SSE,165,1.0,2.0,97,0.00,,,0.06,0,WeatherCatV1.10B1570,2013-06-03 03:55:00,